Aviatická pouť nabídne gripeny, akrobacii nebo vzácná historická letadla. Přiletí i skokan z vesmíru Felix Baumgartner.

28.05.24 Již o tomto víkendu 1. a 2. června proběhne na pardubickém letišti dvaatřicátý ročník Aviatické pouti, akce pro celou rodinu. Na návštěvníky čeká pestrý letecký i pozemní program s mnoha zábavnými aktivitami pro děti i dospělé. Máme pro vás šest zajímavostí, které byste si neměli nechat ujít. Celý článek

Z Českých Budějovic se bude přes zimu létat do egyptské Hurghady

10.05.24 Cestovní kancelář Čedok přidává na zimní sezonu první destinaci z Českých Budějovic. Z jihočeského letiště začne létat ve spolupráci s leteckou společností Corendon Airlines do egyptské Hurghady. Cestující se proletí na dovolenou k Rudému moři na palubě Boeingu 737-800 s kapacitou pro 189 cestujících v ekonomické třídě. Letadla budou startovat každou neděli od konce prosince, provoz plánuje cestovní kancelář prodloužit až do května. Celý článek

Zprávy

aktualizováno

19.07.24 Celý článek

Všechny zprávy    

Všechny články

Kurzy

Kalendář akcí

ICAO English Exam / Zkouška - každý pátek v měsíci
19.07.24 Online Worldwide Campus or Flying Academy Beranových 130 Praha
ICAO English Exam / Zkouška - každý pátek v měsíci
26.07.24 Online Worldwide Campus or Flying Academy Beranových 130 Praha
ICAO English Exam / Zkouška - každý pátek v měsíci
02.08.24 Online Worldwide Campus or Flying Academy Beranových 130 Praha
ICAO English Exam / Zkouška - každý pátek v měsíci
09.08.24 Online Worldwide Campus or Flying Academy Beranových 130 Praha
Austro Control Exam PPL / ATPL
13.08.24 Flying Academy Beranových 130 Praha

Všechny akce

Zeptejte se odborníka

Zkušený personál jedné z největších leteckých škol Flying Academy je připraven Vám pomoci s jakýmikoli otázkami týkajícími se letectví.

Zeptejte se

Newsletter

Přihlaste se k odběru novinek.

Aktuální počasí

LKKB
LKKB 182300Z 01004KT CAVOK 20/13 Q1022

LKKV
LKKV 182300Z 04004KT CAVOK 16/12 Q1024

LKMT
LKMT 182330Z 03003KT CAVOK 19/15 Q1022 NOSIG

LKPR
LKPR 182330Z 01005KT CAVOK 19/12 Q1023 NOSIG

LKTB
LKTB 182330Z 07008KT CAVOK 21/14 Q1021 NOSIG

Briefing

Kurzy měn

AUD AUD 15.57 Kč
EUR EUR 25.28 Kč
GBP GBP 30.04 Kč
HUF HUF 6.49 Kč
CHF CHF 26.16 Kč
USD USD 23.13 Kč